This demonstration page uses our WeatherBlox Daily Observations layout. Learn more.

Left ArrowRight Arrow

Hourly Observations for May 31, 2021

Temp ( °F °C ) Dew Point ( °F °C ) Humidity (%) Winds ( mph kmh ) Pressure ( in mb ) Visibility ( mi km ) Precip ( " mm )
12:53 am 00:53 Clear 46 7.8 45 7.2 96 96 N N/A 30.30 1026 9 14 N/A
1:53 am 01:53 Clear 46 7.8 46 7.8 100 100 N N/A 30.31 1026 9 14 N/A
2:53 am 02:53 Clear with Mist and Fog 45 7.2 44 6.7 97 97 N N/A 30.32 1027 6 10 N/A
3:53 am 03:53 Clear with Mist and Fog 44 6.7 43 6.1 96 96 N N/A 30.32 1027 5 8 N/A
4:53 am 04:53 Clear with Mist and Fog 44 6.7 43 6.1 96 96 N N/A 30.32 1027 5 8 N/A
5:53 am 05:53 Clear 44 6.7 43 6.1 96 96 N N/A 30.33 1027 7 11 N/A
6:53 am 06:53 Sunny with Mist and Fog 45 7.2 44 6.7 97 97 N N/A 30.36 1028 5 8 N/A
7:53 am 07:53 Sunny with Mist and Fog 49 9.4 47 8.3 93 93 N N/A 30.36 1028 6 10 N/A
8:53 am 08:53 Sunny 53 11.7 50 10 89 89 N N/A 30.36 1028 9 14 N/A
9:53 am 09:53 Sunny 61 16.1 51 10.6 70 70 N N/A 30.37 1028 10 16 N/A
10:53 am 10:53 Sunny 63 17.2 48 8.9 58 58 N N/A 30.36 1028 10 16 N/A
11:53 am 11:53 Sunny 66 18.9 50 10 56 56 VRB 5 7 30.34 1027 10 16 N/A
12:53 pm 12:53 Sunny 68 20 47 8.3 47 47 E 6 9 30.32 1027 10 16 N/A
1:53 pm 13:53 Sunny 71 21.7 48 8.9 44 44 VRB 6 9 30.29 1026 10 16 N/A
2:53 pm 14:53 Sunny 72 22.2 46 7.8 40 40 VRB 5 7 30.28 1025 10 16 N/A
3:53 pm 15:53 Sunny 73 22.8 46 7.8 38 38 VRB 3 6 30.26 1025 10 16 N/A
4:53 pm 16:53 Sunny 74 23.3 47 8.3 38 38 SW 3 6 30.25 1024 10 16 N/A
5:53 pm 17:53 Sunny 73 22.8 47 8.3 40 40 S 3 6 30.24 1024 10 16 N/A
6:53 pm 18:53 Sunny 73 22.8 47 8.3 40 40 VRB 3 6 30.23 1024 10 16 N/A
7:53 pm 19:53 Sunny 66 18.9 53 11.7 63 63 N N/A 30.24 1024 10 16 N/A
8:53 pm 20:53 Sunny 64 17.8 54 12.2 70 70 N N/A 30.24 1024 10 16 N/A
9:53 pm 21:53 Clear 59 15 53 11.7 81 81 N N/A 30.23 1024 10 16 N/A
10:53 pm 22:53 Clear 56 13.3 52 11.1 87 87 N N/A 30.23 1024 10 16 N/A
11:53 pm 23:53 Clear 54 12.2 52 11.1 93 93 N N/A 30.23 1024 10 16 N/A

Powered by AerisWeather